#timestamp,LO_Frequency,Hit,StdDev 
1691773215.0,286046998.6,N
1691773215.9,286046998.6,N
1691773235.8,286046998.8,N
1691773255.6,286046998.7,N
1691773275.4,286046998.4,N
1691773295.3,286046998.6,N
1691773315.1,286047001.1,N
1691773335.8,286046999.3,N
1691773355.7,286046999.3,N
1691773375.5,286046998.9,N
1691773395.4,286046998.3,N
1691773415.2,286046998.9,N
1691773435.0,286046998.5,N
1691773435.9,286046998.5,N
1691773455.8,286046999.4,N
1691773475.6,286046998.5,N
1691773495.5,286047001.0,N
1691773515.3,286047000.7,N
1691773535.1,286046999.0,N
1691773555.9,286046999.4,N
1691773575.7,286046998.4,N
1691773595.5,286047000.9,N
1691773615.4,286047000.6,N
1691773635.2,286047001.0,N
1691773655.1,286047001.0,N
1691773656.0,286047001.0,N
1691773675.8,286046999.9,N
1691773695.6,286047001.2,N
1691773715.5,286046998.4,N
1691773735.3,286046998.6,N
1691773755.1,286047000.7,N
1691773775.9,286046998.2,N
1691773795.7,286047001.1,N
1691773815.6,286046998.6,N
1691773835.4,286047001.0,N
1691773855.2,286047001.0,N
1691773875.1,286047002.4,N
1691773876.0,286047002.4,N
1691773895.8,286047001.3,N
1691773915.7,286047002.8,N
1691773935.5,286047001.2,N
1691773955.3,286046998.8,N
1691773975.2,286046998.7,N
1691773995.0,286046998.8,N
1691773995.9,286046998.8,N
1691774015.7,286046999.3,N
1691774035.6,286046998.9,N
1691774055.4,286047000.7,N
1691774075.3,286047001.2,N
1691774095.1,286047001.2,N
1691774096.0,286047001.2,N
1691774115.8,286046998.1,N
1691774135.7,286046998.4,N
1691774155.5,286047000.8,N
1691774175.4,286046998.2,N
1691774195.2,286047000.0,N
1691774215.0,286047000.2,N
1691774215.9,286047000.2,N
1691774235.8,286047002.3,N
1691774255.6,286047000.3,N
1691774275.4,286047002.5,N
1691774295.3,286047001.8,N
1691774315.1,286047001.4,N
1691774335.9,286047004.2,N
1691774355.7,286047003.6,N
1691774375.5,286047001.5,N
1691774395.4,286047001.7,N
1691774415.2,286047002.2,N
1691774435.0,286047001.9,N
1691774435.9,286047001.9,N
1691774455.8,286047004.0,N
1691774475.6,286047001.7,N
1691774495.5,286047001.5,N
1691774515.3,286047001.7,N
1691774535.1,286047001.8,N
1691774555.9,286047004.1,N
1691774575.7,286047003.2,N
1691774595.5,286047003.2,N
1691774615.4,286047004.3,N
1691774635.2,286047003.2,N
1691774655.1,286047003.8,N
1691774656.0,286047003.8,N
1691774675.8,286047003.9,N
1691774695.6,286047001.6,N
1691774715.5,286047001.5,N
1691774735.3,286047003.8,N
1691774755.1,286047003.1,N
1691774775.9,286047003.5,Y
1691774795.7,286046999.8,P
1691774815.6,286046998.3,N
1691774835.4,286046998.7,N
1691774855.2,286047000.9,N
1691774875.1,286047000.7,N
1691774876.0,286047000.7,N
1691774895.8,286046999.7,N
1691774915.7,286046999.7,N
1691774935.5,286046998.5,N
1691774955.3,286047000.9,N
1691774975.2,286046999.9,N
1691774995.9,286047000.0,N
1691775015.7,286047000.8,N
1691775035.6,286046998.9,N
1691775055.4,286046998.4,N
1691775075.3,286046999.0,N
1691775095.1,286046998.6,N
1691775096.0,286046998.6,N
1691775115.8,286046999.2,N
1691775135.7,286046998.4,N
1691775155.5,286046996.5,Y
1691775175.3,286046994.9,P
1691775195.2,286046995.4,N
1691775215.0,286046996.5,N
1691775215.9,286046996.5,N
1691775235.8,286046999.6,N
1691775255.6,286046993.3,Y
1691775275.4,286046996.5,P
1691775295.3,286046996.8,P
1691775315.1,286046996.8,P
1691775335.9,286046998.2,Y
1691775355.7,286047002.7,P
1691775375.5,286047002.3,N
1691775395.4,286047003.9,N
1691775415.2,286047001.3,N
1691775435.0,286047003.5,N
1691775435.9,286047003.5,N
1691775455.8,286047002.1,N
1691775475.6,286047002.6,N
1691775495.5,286047000.5,N
1691775515.3,286046998.3,N
1691775535.1,286046998.5,N
1691775555.9,286046998.4,N
1691775575.7,286047000.7,N
1691775595.5,286046999.9,N
1691775615.4,286047000.7,N
1691775635.2,286047000.4,N
1691775655.1,286047000.1,N
1691775656.0,286047000.1,N
1691775675.8,286046999.7,N
1691775695.6,286047001.9,N
1691775715.5,286047002.8,N
1691775735.3,286047000.6,N
1691775755.1,286046998.3,N
1691775775.9,286047000.4,N
1691775795.7,286047000.6,N
1691775815.6,286047002.7,N
1691775835.4,286047000.4,N
1691775855.2,286047002.8,N
1691775875.1,286047001.0,N
1691775876.0,286047001.0,N
1691775895.8,286047000.9,N
1691775915.6,286047000.3,N
1691775935.5,286046998.5,N
1691775955.3,286046998.9,N
1691775975.2,286046997.1,N
1691775995.9,286047000.8,N
1691776015.7,286046998.2,N
1691776035.6,286046996.7,N
1691776055.4,286046999.5,N
1691776075.3,286046999.2,N
1691776095.1,286046998.4,N
1691776096.0,286046998.4,N
1691776115.8,286047000.4,N
1691776135.7,286046998.1,N
1691776155.5,286046998.7,N
1691776175.3,286046998.3,N
1691776195.2,286046998.7,N
1691776215.0,286046998.4,N
1691776215.9,286046998.4,N
1691776235.8,286046998.8,N
1691776255.6,286047001.2,N
1691776275.4,286046997.1,N
1691776295.3,286046996.5,N
1691776315.1,286046997.2,N
1691776335.8,286046997.1,N
1691776355.7,286046997.3,N
1691776375.5,286046997.9,N
1691776395.4,286046997.6,N
1691776415.2,286046997.8,N
1691776435.0,286046999.6,N
1691776435.9,286046999.6,N
1691776455.8,286046999.6,N
1691776475.6,286046996.7,N
1691776495.4,286046996.7,N
1691776515.3,286046996.9,N
1691776535.1,286046997.2,N
1691776555.9,286046997.4,N
1691776575.7,286046998.0,N
1691776595.5,286046994.9,Y
1691776615.4,286046998.5,P
1691776635.2,286047000.2,N
1691776655.0,286047001.1,N
1691776655.9,286047001.1,N
1691776675.8,286047000.3,N
1691776695.6,286047000.7,N
1691776715.5,286047001.0,N
1691776735.3,286046998.3,N
1691776755.1,286046998.7,N
1691776775.9,286046998.2,N
1691776795.7,286046998.2,N
